Regional Weather Roundup
Issued by NWS

Home | Current Version | Previous Version | Graphics & Text | Print | Product List | Glossary On
Versions: 1 2 3 4 5 6 7 8 9 10 11 12 13 14 15 16 17 18 19 20 21 22 23 24 25 26 27 28 29 30 31 32 33 34 35 36 37 38 39 40 41 42 43 44 45 46 47 48 49 50
000
ASUS43 KMKX 250300
RWRWI

WISCONSIN REGIONAL WEATHER ROUNDUP
NATIONAL WEATHER SERVICE MILWAUKEE/SULLIVAN WI
900 PM CST WED DEC 24 2014

NOTE: "FAIR" INDICATES FEW OR NO CLOUDS BELOW 12,000 FEET WITH NO
SIGNIFICANT WEATHER AND/OR OBSTRUCTIONS TO VISIBILITY.

WIZ001-002-006>008-014>016-023>028-250400-
NORTHWEST WISCONSIN

CITY           SKY/WX    TMP DP  RH WIND       PRES   REMARKS
SUPERIOR ARPT  MOCLDY    32  31  96 W8        29.54F WCI  25
ASHLAND        CLOUDY    32  31  96 SW6       29.52F WCI  26
HAYWARD        CLOUDY    32  29  88 SW6       29.53F WCI  26
SIREN          CLOUDY    32  30  93 W3        29.56F
CUMBERLAND     CLOUDY    32  28  86 W7        29.55F WCI  26
RICE LAKE      CLOUDY    33  29  83 W5        29.58S WCI  29
CHETEK         CLOUDY    33  29  85 W3        29.57S
LADYSMITH      CLOUDY    32  29  88 W5        29.56S WCI  28
EAU CLAIRE     NOT AVBL
MENOMONIE      CLOUDY    34  31  88 W3        29.59F
NEW RICHMOND   CLOUDY    33  32  96 W5        29.58F WCI  28
OSCEOLA        CLOUDY    33  33 100 SW6       29.60F WCI  28
$$

WIZ003>005-009-010-017-018-250400-
NORTH CENTRAL WISCONSIN

CITY           SKY/WX    TMP DP  RH WIND       PRES   REMARKS
MANITOWISH WTR CLOUDY    29  29 100 W6        29.48F WCI  23
ARBOR VITAE    CLOUDY    32  30  94 NW3       29.47F
WOODRUFF       CLOUDY    32  30  94 NW3       29.47F
RHINELANDER    CLOUDY    29  27  92 W6        29.47F WCI  23
EAGLE RIVER    FLURRIES  29  29  97 NW5       29.45F WCI  24
LAND O LAKES   CLOUDY    30  29  96 NW5       29.46F WCI  25
PHILLIPS       CLOUDY    30  29  96 CALM      29.50F
TOMAHAWK       CLOUDY    30  28  92 CALM      29.50F
MEDFORD        CLOUDY    31  29  92 W7        29.51F WCI  24
MERRILL        CLOUDY    32  30  92 NW6       29.49F WCI  26
$$

WIZ029-030-035-036-043>047-250400-
CENTRAL WISCONSIN

CITY           SKY/WX    TMP DP  RH WIND       PRES   REMARKS
WAUSAU         CLOUDY    32  29  88 NW8       29.49F WCI  25
MOSINEE        CLOUDY    32  30  93 NW8       29.51F WCI  25
MARSHFIELD     CLOUDY    33  30  88 W9        29.53S WCI  25
STEVENS POINT  CLOUDY    32  29  90 W6        29.52F WCI  26
WAUPACA        CLOUDY    35  32  88 W8        29.52S WCI  29
WAUTOMA        CLOUDY    34  34 100 W8        29.54S WCI  27
WISC RAPIDS    CLOUDY    33  29  85 W8        29.55F WCI  26
CAMP DOUGLAS   CLOUDY    32  32 100 W8        29.57R WCI  25
$$

WIZ011>013-019>022-031-037>040-048>050-250400-
NORTHEAST WISCONSIN

CITY           SKY/WX    TMP DP  RH WIND       PRES   REMARKS
ANTIGO         LGT SNOW  30  28  94 NW7       29.48F WCI  23
SHAWANO        CLOUDY    34  33  96 W3        29.50R
OCONTO         CLOUDY    32  32  99 W6        29.47R WCI  27
STURGEON BAY   CLOUDY    32  30  93 NW12      29.47R WCI  23
GREEN BAY      CLOUDY    34  32  92 W8        29.49S WCI  27
MANITOWOC      CLOUDY    34  34 100 NW8       29.48S WCI  27
APPLETON       CLOUDY    34  34 100 NW12      29.50S WCI  25
CLINTONVILLE   CLOUDY    34  32  93 NW8       29.50R WCI  27
OSHKOSH        CLOUDY    34  31  88 W9        29.51R WCI  27
$$

WIZ032>034-041-042-053>061-250400-
SOUTHWEST WISCONSIN

CITY           SKY/WX    TMP DP  RH WIND       PRES   REMARKS
LA CROSSE      CLOUDY    36  29  75 W7        29.61S WCI  30
SPARTA         CLOUDY    34  31  90 W3        29.61R
VIROQUA        CLOUDY    33  33 100 W8        29.59R WCI  26
BOSCOBEL       CLOUDY    36  30  79 W6        29.63R WCI  31
PRAIRIE DU CHI CLOUDY    35  29  78 W9        29.64R WCI  28
PLATTEVILLE    CLOUDY    34  32  92 CALM      29.62S
$$

WIZ056-057-062-063-064-067-068-250400-
SOUTH CENTRAL WISCONSIN

CITY           SKY/WX    TMP DP  RH WIND       PRES   REMARKS
REEDSBURG      CLOUDY    33  32  95 W8        29.57R WCI  26
BARABOO/DELLS  CLOUDY    33  31  94 W7        29.56R WCI  27
LONE ROCK      CLOUDY    39  31  72 W8        29.60R WCI  33
MINERAL POINT  CLOUDY    36  32  87 W13       29.59R WCI  27
MADISON        CLOUDY    34  31  88 W6        29.56R WCI  29
MIDDLETON      CLOUDY    35  34  95 W8        29.57S WCI  29
WATERTOWN      CLOUDY    34  33  96 W8        29.54R WCI  27
MONROE         CLOUDY    34  32  93 W10       29.58S WCI  26
JANESVILLE     CLOUDY    36  34  93 W9        29.57R WCI  29
$$

WIZ051-052-058>065-066-070>072-250400-
SOUTHEAST WISCONSIN

CITY           SKY/WX    TMP DP  RH WIND       PRES   REMARKS
MILWAUKEE      CLOUDY    36  31  82 W13       29.52R WCI  27
WAUKESHA       CLOUDY    34  32  93 W14G20    29.53R WCI  24
MILWAUKEE/TIMM CLOUDY    36  32  87 W7        29.52S WCI  30
RACINE         CLOUDY    36  32  85 W15       29.54R WCI  27
BURLINGTON     CLOUDY    33  32  94 W12G18    29.55R WCI  25
KENOSHA        CLOUDY    36  33  89 W13       29.54R WCI  27
FOND DU LAC    CLOUDY    34  31  88 W13       29.51S WCI  25
SHEBOYGAN      CLOUDY    34  32  92 W7        29.49R WCI  28
WEST BEND      CLOUDY    34  32  93 W10       29.50S WCI  26
JUNEAU         CLOUDY    33  31  94 W9        29.53S WCI  25
$$

LSZ147-162-250400-
LAKE SUPERIOR

STATION/POSITION TIME  TEMP    WIND        PRES    WAVE
                       AIR SEA DIR/SP/G            HT/PER
                 (UTC) (F)     (DEG/KT/KT) (MB)    (FT/S)
DEVILS ISLAND    0200   34     220/  7/  9 1000.2F
PORT WING        0200   33     210/  5/  7 1000.7S
SAXON HARBOR     0200   33        CALM     1000.3F
$$

LMZ867-665-643>646-250400-
LAKE MICHIGAN

STATION/POSITION TIME  TEMP    WIND        PRES    WAVE
                       AIR SEA DIR/SP/G            HT/PER
                 (UTC) (F)     (DEG/KT/KT) (MB)    (FT/S)
CHAMBERS ISLAND  0200   33     300/  7/ 11  997.6F
NORTHPORT PIER   0200   33     310/ 14/ 21  997.0F
SISTER BAY       0213          360/ 18/ 19   N/A
ALGOMA LAKESHORE 0100          340/ 10/ 12   N/A
KEWAUNEE LAKESHO 0200          310/  5/  9  997.1R
SHEBOYGAN LAKESH 0200   35 37  300/ 11/ 15  999.1R
PORT WASHINGTON  0240   36     300/  8/ 14 1000.0R
MILWAUKEE LAKESH 0200   36     280/  9/ 12   N/A
KENOSHA   LAKESH 0200   37     280/ 11/ 15  999.7S
$$

TC  - TEMPERATURE IN CELSIUS
VSB - VISIBILITY IN STATUTE MILES
WCI - WIND CHILL INDEX
HX  - HEAT INDEX



USA.gov is the U.S. government's official web portal to all federal, state and local government web resources and services.